DAL2020 KMSP-KIND

Flight info

Callsign DAL2020
Flight time 1h 11m
Altitude 33000
Route ZMBRO7 ODI J30 SIBER DCT PEKUE DCT WORDY DCT JAKKS JAKKS2
Aircraft A332/M-V/N

Departure

Time 2026-05-06 00:23
Airport Minneapolis–Saint Paul International Airport / Wold–Chamberlain Field (KMSP)

Arrival

Time 2026-05-06 01:35
Airport Indianapolis International Airport (KIND)
Time Latitude Longitude Altitude Speed Heading
2026-05-06 00:04 44.88169 -93.21345 827 ft 0 kts 48°
2026-05-06 00:14 44.88166 -93.21349 826 ft 3 kts 48°
2026-05-06 00:14 44.88154 -93.21368 826 ft 3 kts 48°
2026-05-06 00:14 44.88142 -93.21387 826 ft 3 kts 48°
2026-05-06 00:15 44.88130 -93.21405 826 ft 2 kts 48°
2026-05-06 00:15 44.88119 -93.21423 826 ft 2 kts 48°
2026-05-06 00:15 44.88107 -93.21441 826 ft 3 kts 53°
2026-05-06 00:15 44.88100 -93.21464 826 ft 3 kts 102°
2026-05-06 00:16 44.88106 -93.21485 827 ft 2 kts 120°
2026-05-06 00:16 44.88106 -93.21486 827 ft 0 kts 120°
2026-05-06 00:17 44.88096 -93.21459 826 ft 10 kts 117°
2026-05-06 00:18 44.88073 -93.21381 827 ft 0 kts 111°
2026-05-06 00:18 44.88029 -93.21255 832 ft 27 kts 120°
2026-05-06 00:18 44.87924 -93.21012 831 ft 31 kts 120°
2026-05-06 00:19 44.87904 -93.20964 833 ft 0 kts 119°
2026-05-06 00:19 44.87898 -93.20946 833 ft 6 kts 116°
2026-05-06 00:19 44.87891 -93.20922 830 ft 6 kts 112°
2026-05-06 00:20 44.87878 -93.20888 831 ft 7 kts 119°
2026-05-06 00:20 44.87838 -93.20819 833 ft 9 kts 136°
2026-05-06 00:21 44.87789 -93.20760 826 ft 10 kts 140°
2026-05-06 00:21 44.87713 -93.20652 828 ft 21 kts 126°
2026-05-06 00:21 44.87619 -93.20439 829 ft 29 kts 122°
2026-05-06 00:21 44.87519 -93.20206 829 ft 27 kts 121°
2026-05-06 00:22 44.87461 -93.20094 830 ft 4 kts 137°
2026-05-06 00:22 44.87448 -93.20083 824 ft 1 kts 211°
2026-05-06 00:22 44.87414 -93.20120 832 ft 8 kts 222°
2026-05-06 00:22 44.87396 -93.20158 825 ft 3 kts 297°
2026-05-06 00:23 44.87490 -93.20402 824 ft 63 kts 299°
2026-05-06 00:23 44.87839 -93.21234 831 ft 133 kts 301°
2026-05-06 00:23 44.88326 -93.22521 1302 ft 162 kts 289°
2026-05-06 00:23 44.88487 -93.24206 2140 ft 187 kts 270°
2026-05-06 00:24 44.88135 -93.26089 3079 ft 207 kts 250°
2026-05-06 00:24 44.87358 -93.27573 3827 ft 171 kts 224°
2026-05-06 00:24 44.86405 -93.28498 4137 ft 174 kts 213°
2026-05-06 00:24 44.85059 -93.28977 4395 ft 232 kts 180°
2026-05-06 00:25 44.83432 -93.28094 4852 ft 273 kts 140°
2026-05-06 00:25 44.82201 -93.25900 5541 ft 299 kts 120°
2026-05-06 00:25 44.81106 -93.23271 6222 ft 323 kts 120°
2026-05-06 00:25 44.79886 -93.20474 6870 ft 346 kts 122°
2026-05-06 00:26 44.78530 -93.17550 7562 ft 366 kts 124°
2026-05-06 00:26 44.77992 -93.16419 7937 ft 369 kts 124°
2026-05-06 00:26 44.76532 -93.13401 8956 ft 377 kts 125°
2026-05-06 00:26 44.75026 -93.10338 10009 ft 383 kts 125°
2026-05-06 00:27 44.73486 -93.07229 10977 ft 389 kts 126°
2026-05-06 00:27 44.72450 -93.05147 11627 ft 393 kts 126°
2026-05-06 00:27 44.71454 -93.03146 12234 ft 396 kts 126°
2026-05-06 00:27 44.70096 -93.00422 12995 ft 402 kts 126°
2026-05-06 00:28 44.68479 -92.97188 13884 ft 407 kts 127°
2026-05-06 00:28 44.66864 -92.93960 14634 ft 412 kts 127°
2026-05-06 00:28 44.65203 -92.90646 15401 ft 417 kts 127°
2026-05-06 00:28 44.63520 -92.87293 16137 ft 422 kts 127°
2026-05-06 00:29 44.61816 -92.83902 16837 ft 427 kts 127°
2026-05-06 00:29 44.60093 -92.80476 17553 ft 432 kts 127°
2026-05-06 00:29 44.58349 -92.77012 18246 ft 436 kts 127°
2026-05-06 00:29 44.56590 -92.73523 18831 ft 440 kts 128°
2026-05-06 00:30 44.54815 -92.70009 19437 ft 443 kts 129°
2026-05-06 00:30 44.53028 -92.66466 20056 ft 446 kts 130°
2026-05-06 00:30 44.51232 -92.62916 20686 ft 448 kts 130°
2026-05-06 00:30 44.49419 -92.59341 21333 ft 450 kts 131°
2026-05-06 00:31 44.47601 -92.55766 21994 ft 451 kts 133°
2026-05-06 00:31 44.45778 -92.52177 22653 ft 452 kts 133°
2026-05-06 00:31 44.43957 -92.48591 23345 ft 452 kts 134°
2026-05-06 00:31 44.42132 -92.45002 23954 ft 452 kts 135°
2026-05-06 00:32 44.40306 -92.41418 24555 ft 450 kts 135°
2026-05-06 00:32 44.38515 -92.37905 25083 ft 449 kts 136°
2026-05-06 00:32 44.36709 -92.34366 25694 ft 446 kts 136°
2026-05-06 00:32 44.34913 -92.30853 26316 ft 443 kts 136°
2026-05-06 00:33 44.33129 -92.27368 26947 ft 439 kts 137°
2026-05-06 00:33 44.31360 -92.23914 27588 ft 434 kts 137°
2026-05-06 00:33 44.29610 -92.20501 28248 ft 429 kts 138°
2026-05-06 00:33 44.27885 -92.17140 28919 ft 423 kts 138°
2026-05-06 00:34 44.26184 -92.13828 29617 ft 415 kts 139°
2026-05-06 00:34 44.24518 -92.10587 30251 ft 406 kts 139°
2026-05-06 00:34 44.22890 -92.07423 30847 ft 396 kts 140°
2026-05-06 00:34 44.21311 -92.04354 31447 ft 384 kts 140°
2026-05-06 00:35 44.19776 -92.01371 32014 ft 370 kts 141°
2026-05-06 00:35 44.18308 -91.98517 32585 ft 354 kts 142°
2026-05-06 00:35 44.16868 -91.95771 32834 ft 350 kts 143°
2026-05-06 00:35 44.15372 -91.93107 32674 ft 357 kts 146°
2026-05-06 00:36 44.13737 -91.90470 32552 ft 362 kts 149°
2026-05-06 00:36 44.12007 -91.87964 32754 ft 354 kts 153°
2026-05-06 00:36 44.10245 -91.85667 33126 ft 339 kts 158°
2026-05-06 00:36 44.08439 -91.83596 33327 ft 328 kts 163°
2026-05-06 00:37 44.06596 -91.81819 33242 ft 326 kts 169°
2026-05-06 00:37 44.04618 -91.80294 33113 ft 323 kts 175°
2026-05-06 00:37 44.02577 -91.79109 33223 ft 311 kts 182°
2026-05-06 00:37 44.00575 -91.78338 33512 ft 287 kts 191°
2026-05-06 00:38 43.98673 -91.78021 33783 ft 265 kts 201°
2026-05-06 00:38 43.96896 -91.78177 33771 ft 250 kts 211°
2026-05-06 00:38 43.95259 -91.78832 33621 ft 239 kts 215°
2026-05-06 00:38 43.93464 -91.79237 33006 ft 299 kts 194°
2026-05-06 00:39 43.91231 -91.78495 32616 ft 357 kts 172°
2026-05-06 00:39 43.89070 -91.76594 33244 ft 375 kts 153°
2026-05-06 00:39 43.87346 -91.73923 34257 ft 366 kts 136°
2026-05-06 00:39 43.85988 -91.70892 34452 ft 380 kts 129°
2026-05-06 00:40 43.84868 -91.67406 33948 ft 414 kts 119°
2026-05-06 00:40 43.83825 -91.63604 33596 ft 423 kts 127°
2026-05-06 00:40 43.82451 -91.60151 33903 ft 404 kts 137°
2026-05-06 00:40 43.80824 -91.57167 34395 ft 379 kts 131°
2026-05-06 00:41 43.79624 -91.55110 34104 ft 393 kts 144°
2026-05-06 00:42 43.77454 -91.51676 33548 ft 416 kts 145°
2026-05-06 00:42 43.75500 -91.48596 33167 ft 436 kts 144°
2026-05-06 00:43 43.73475 -91.45340 32864 ft 453 kts 142°
2026-05-06 00:43 43.69421 -91.38516 32977 ft 469 kts 141°
2026-05-06 00:43 43.67321 -91.35075 33204 ft 469 kts 142°
2026-05-06 00:44 43.65203 -91.31641 33475 ft 470 kts 142°
2026-05-06 00:44 43.60904 -91.24715 33561 ft 481 kts 142°
2026-05-06 00:45 43.56460 -91.17597 33585 ft 496 kts 142°
2026-05-06 00:45 43.51861 -91.10314 33585 ft 511 kts 142°
2026-05-06 00:46 43.47120 -91.02889 33581 ft 527 kts 142°
2026-05-06 00:46 43.42191 -90.95240 33548 ft 541 kts 142°
2026-05-06 00:47 43.37165 -90.87455 33577 ft 554 kts 142°
2026-05-06 00:47 43.31986 -90.79483 33569 ft 562 kts 142°
2026-05-06 00:48 43.26770 -90.71449 33564 ft 564 kts 142°
2026-05-06 00:48 43.21537 -90.63373 33535 ft 566 kts 142°
2026-05-06 00:49 43.16323 -90.55250 33565 ft 568 kts 142°
2026-05-06 00:49 43.11136 -90.47151 33565 ft 568 kts 141°
2026-05-06 00:50 43.05929 -90.39008 33557 ft 568 kts 141°
2026-05-06 00:50 43.00710 -90.30832 33534 ft 570 kts 141°
2026-05-06 00:51 42.95521 -90.22634 33554 ft 571 kts 141°
2026-05-06 00:51 42.90361 -90.14466 33552 ft 571 kts 141°
2026-05-06 00:52 42.85166 -90.06232 33549 ft 571 kts 141°
2026-05-06 00:52 42.79986 -89.98015 33535 ft 572 kts 141°
2026-05-06 00:53 42.74830 -89.89835 33546 ft 572 kts 141°
2026-05-06 00:53 42.69644 -89.81594 33540 ft 573 kts 141°
2026-05-06 00:54 42.64471 -89.73367 33534 ft 572 kts 141°
2026-05-06 00:54 42.59301 -89.65136 33528 ft 573 kts 141°
2026-05-06 00:55 42.54167 -89.56942 33538 ft 573 kts 141°
2026-05-06 00:55 42.48972 -89.48645 33539 ft 573 kts 141°
2026-05-06 00:56 42.43851 -89.40459 33541 ft 573 kts 141°
2026-05-06 00:56 42.38700 -89.32211 33528 ft 574 kts 141°
2026-05-06 00:57 42.33539 -89.23931 33551 ft 575 kts 141°
2026-05-06 00:57 42.28376 -89.15659 33548 ft 576 kts 141°
2026-05-06 00:58 42.23207 -89.07376 33545 ft 576 kts 141°
2026-05-06 00:58 42.17744 -88.99776 33528 ft 553 kts 154°
2026-05-06 00:59 42.11618 -88.93610 33551 ft 546 kts 158°
2026-05-06 00:59 42.05376 -88.87829 33551 ft 544 kts 159°
2026-05-06 01:00 41.99104 -88.82100 33543 ft 543 kts 158°
2026-05-06 01:00 41.92851 -88.76356 33546 ft 544 kts 158°
2026-05-06 01:01 41.86650 -88.70642 33556 ft 544 kts 158°
2026-05-06 01:01 41.80403 -88.64888 33537 ft 544 kts 158°
2026-05-06 01:02 41.74141 -88.59138 33533 ft 546 kts 158°
2026-05-06 01:02 41.67871 -88.53397 33533 ft 546 kts 158°
2026-05-06 01:03 41.61589 -88.47656 33541 ft 546 kts 158°
2026-05-06 01:03 41.55302 -88.41926 33545 ft 547 kts 158°
2026-05-06 01:04 41.49033 -88.36230 33231 ft 550 kts 150°
2026-05-06 01:04 41.45970 -88.33438 34309 ft 522 kts 158°
2026-05-06 01:04 41.42988 -88.30688 34619 ft 526 kts 155°
2026-05-06 01:04 41.40080 -88.27597 34631 ft 542 kts 150°
2026-05-06 01:05 41.37251 -88.24209 34631 ft 552 kts 148°
2026-05-06 01:05 41.31538 -88.17218 34611 ft 564 kts 148°
2026-05-06 01:06 41.25715 -88.10151 34986 ft 567 kts 148°
2026-05-06 01:06 41.22799 -88.06622 35173 ft 568 kts 148°
2026-05-06 01:06 41.19866 -88.03099 35340 ft 569 kts 148°
2026-05-06 01:06 41.16930 -87.99579 35610 ft 568 kts 148°
2026-05-06 01:07 41.13991 -87.96052 35884 ft 567 kts 148°
2026-05-06 01:07 41.11102 -87.92585 36106 ft 567 kts 148°
2026-05-06 01:07 41.08171 -87.89070 36339 ft 567 kts 148°
2026-05-06 01:07 41.05250 -87.85570 36577 ft 566 kts 148°
2026-05-06 01:08 41.02331 -87.82069 36835 ft 566 kts 148°
2026-05-06 01:08 40.99421 -87.78577 37080 ft 565 kts 148°
2026-05-06 01:08 40.96512 -87.75084 37320 ft 564 kts 148°
2026-05-06 01:08 40.93579 -87.71629 37543 ft 559 kts 152°
2026-05-06 01:09 40.90450 -87.68690 37702 ft 544 kts 161°
2026-05-06 01:09 40.87115 -87.66493 37845 ft 524 kts 172°
2026-05-06 01:09 40.83700 -87.65232 38088 ft 498 kts 185°
2026-05-06 01:09 40.80290 -87.64574 38314 ft 491 kts 187°
2026-05-06 01:10 40.78048 -87.64250 38458 ft 488 kts 188°
2026-05-06 01:10 40.74683 -87.63873 38662 ft 484 kts 189°
2026-05-06 01:10 40.70195 -87.63472 38863 ft 483 kts 190°
2026-05-06 01:10 40.66840 -87.63195 39017 ft 483 kts 190°
2026-05-06 01:11 40.63483 -87.62924 39168 ft 482 kts 190°
2026-05-06 01:11 40.61265 -87.62749 39277 ft 482 kts 190°
2026-05-06 01:11 40.56841 -87.62395 39491 ft 484 kts 188°
2026-05-06 01:11 40.53459 -87.61754 39658 ft 498 kts 180°
2026-05-06 01:12 40.50084 -87.60453 39824 ft 514 kts 170°
2026-05-06 01:12 40.46820 -87.58349 39995 ft 533 kts 158°
2026-05-06 01:12 40.43814 -87.55371 40118 ft 550 kts 145°
2026-05-06 01:12 40.42020 -87.52882 40232 ft 561 kts 135°
2026-05-06 01:13 40.39867 -87.48554 40398 ft 572 kts 123°
2026-05-06 01:13 40.38060 -87.43909 40579 ft 572 kts 122°
2026-05-06 01:13 40.36255 -87.39328 40735 ft 571 kts 123°
2026-05-06 01:14 40.30693 -87.25481 40876 ft 567 kts 123°
2026-05-06 01:14 40.28872 -87.20933 40569 ft 562 kts 123°
2026-05-06 01:14 40.27055 -87.16410 39764 ft 567 kts 123°
2026-05-06 01:15 40.25185 -87.11794 38651 ft 578 kts 124°
2026-05-06 01:15 40.23288 -87.07142 37353 ft 581 kts 124°
2026-05-06 01:15 40.21373 -87.02469 36096 ft 582 kts 123°
2026-05-06 01:15 40.19465 -86.97827 35074 ft 572 kts 124°
2026-05-06 01:16 40.17607 -86.93301 34098 ft 560 kts 123°
2026-05-06 01:16 40.15841 -86.88797 33067 ft 551 kts 117°
2026-05-06 01:16 40.14759 -86.84038 32012 ft 545 kts 97°
2026-05-06 01:16 40.14873 -86.79232 31046 ft 528 kts 75°
2026-05-06 01:17 40.16121 -86.74861 30146 ft 501 kts 54°
2026-05-06 01:17 40.18241 -86.71455 29192 ft 468 kts 33°
2026-05-06 01:17 40.20890 -86.69301 28336 ft 431 kts 12°
2026-05-06 01:17 40.23676 -86.68509 27498 ft 393 kts 351°
2026-05-06 01:18 40.26237 -86.68999 26722 ft 355 kts 329°
2026-05-06 01:18 40.28254 -86.70542 26016 ft 321 kts 308°
2026-05-06 01:18 40.29537 -86.72770 25106 ft 301 kts 288°
2026-05-06 01:18 40.30009 -86.75380 24136 ft 292 kts 267°
2026-05-06 01:19 40.29664 -86.77966 23193 ft 289 kts 248°
2026-05-06 01:19 40.28619 -86.80215 22177 ft 291 kts 233°
2026-05-06 01:19 40.27252 -86.82150 21253 ft 290 kts 227°
2026-05-06 01:19 40.25679 -86.83842 20348 ft 292 kts 219°
2026-05-06 01:20 40.23883 -86.85092 19509 ft 296 kts 206°
2026-05-06 01:20 40.21847 -86.85660 18704 ft 304 kts 192°
2026-05-06 01:20 40.19749 -86.85486 17975 ft 312 kts 177°
2026-05-06 01:20 40.17727 -86.84385 17276 ft 321 kts 158°
2026-05-06 01:21 40.15941 -86.82529 16350 ft 331 kts 147°
2026-05-06 01:21 40.14273 -86.80544 15945 ft 316 kts 146°
2026-05-06 01:21 40.12779 -86.78546 15787 ft 297 kts 142°
2026-05-06 01:21 40.11472 -86.76593 15683 ft 276 kts 142°
2026-05-06 01:22 40.10278 -86.74706 15526 ft 262 kts 141°
2026-05-06 01:22 40.09113 -86.72957 15361 ft 248 kts 144°
2026-05-06 01:22 40.07965 -86.71347 15155 ft 236 kts 147°
2026-05-06 01:22 40.06831 -86.69874 14956 ft 226 kts 150°
2026-05-06 01:23 40.05655 -86.68390 14201 ft 246 kts 148°
2026-05-06 01:23 40.04351 -86.66757 13357 ft 272 kts 147°
2026-05-06 01:23 40.02924 -86.65003 12528 ft 291 kts 147°
2026-05-06 01:23 40.01382 -86.63215 11843 ft 302 kts 147°
2026-05-06 01:24 39.99929 -86.61570 11409 ft 306 kts 147°
2026-05-06 01:24 39.98346 -86.59772 11272 ft 296 kts 147°
2026-05-06 01:24 39.96832 -86.58033 11040 ft 289 kts 146°
2026-05-06 01:24 39.95304 -86.56253 10540 ft 295 kts 145°
2026-05-06 01:25 39.93796 -86.54495 10206 ft 294 kts 146°
2026-05-06 01:25 39.92244 -86.52731 9872 ft 292 kts 146°
2026-05-06 01:25 39.90719 -86.51041 9516 ft 291 kts 147°
2026-05-06 01:25 39.89169 -86.49362 9170 ft 288 kts 147°
2026-05-06 01:26 39.87652 -86.47680 8899 ft 284 kts 145°
2026-05-06 01:26 39.86186 -86.45975 8619 ft 281 kts 143°
2026-05-06 01:26 39.84767 -86.44240 8364 ft 278 kts 141°
2026-05-06 01:26 39.83373 -86.42460 7685 ft 289 kts 140°
2026-05-06 01:27 39.81917 -86.40548 6863 ft 304 kts 140°
2026-05-06 01:27 39.80180 -86.38961 6334 ft 303 kts 157°
2026-05-06 01:27 39.78174 -86.38289 5933 ft 294 kts 181°
2026-05-06 01:27 39.76203 -86.38751 5558 ft 286 kts 206°
2026-05-06 01:28 39.74683 -86.40271 5308 ft 274 kts 226°
2026-05-06 01:28 39.73343 -86.41942 5212 ft 262 kts 225°
2026-05-06 01:28 39.72079 -86.43586 5079 ft 250 kts 227°
2026-05-06 01:28 39.70921 -86.45174 5034 ft 232 kts 227°
2026-05-06 01:29 39.69794 -86.46594 4917 ft 221 kts 225°
2026-05-06 01:29 39.68704 -86.47911 4824 ft 206 kts 224°
2026-05-06 01:29 39.67680 -86.49101 4798 ft 189 kts 224°
2026-05-06 01:29 39.66715 -86.50180 4739 ft 177 kts 223°
2026-05-06 01:30 39.65683 -86.50935 4688 ft 166 kts 195°
2026-05-06 01:30 39.64582 -86.50989 4676 ft 154 kts 174°
2026-05-06 01:30 39.63601 -86.50474 4442 ft 155 kts 145°
2026-05-06 01:30 39.62827 -86.49499 4214 ft 154 kts 130°
2026-05-06 01:31 39.62071 -86.48387 4100 ft 184 kts 131°
2026-05-06 01:31 39.61144 -86.47005 4155 ft 217 kts 130°
2026-05-06 01:31 39.60409 -86.45364 4020 ft 207 kts 104°
2026-05-06 01:31 39.60651 -86.43618 3631 ft 198 kts 50°
2026-05-06 01:32 39.61646 -86.42538 3359 ft 184 kts 33°
2026-05-06 01:32 39.62645 -86.41589 3134 ft 172 kts 33°
2026-05-06 01:32 39.63569 -86.40678 2870 ft 164 kts 34°
2026-05-06 01:32 39.64444 -86.39740 2511 ft 162 kts 39°
2026-05-06 01:33 39.65281 -86.38773 2145 ft 160 kts 38°
2026-05-06 01:33 39.66166 -86.37753 1956 ft 188 kts 40°
2026-05-06 01:33 39.67146 -86.36482 1816 ft 197 kts 40°
2026-05-06 01:33 39.68086 -86.35287 1622 ft 181 kts 41°
2026-05-06 01:34 39.68975 -86.34201 1347 ft 169 kts 41°
2026-05-06 01:34 39.69790 -86.33177 1083 ft 155 kts 40°
2026-05-06 01:34 39.70519 -86.32246 873 ft 140 kts 44°
2026-05-06 01:34 39.71114 -86.31489 788 ft 72 kts 47°
2026-05-06 01:35 39.71341 -86.31190 790 ft 31 kts 44°
2026-05-06 01:35 39.71405 -86.31053 790 ft 0 kts 143°
2026-05-06 01:35 39.71379 -86.31029 791 ft 8 kts 144°
2026-05-06 01:35 39.71347 -86.31001 791 ft 0 kts 150°
2026-05-06 01:37 39.71334 -86.30990 790 ft 7 kts 146°
2026-05-06 01:37 39.71309 -86.30963 790 ft 0 kts 136°
2026-05-06 01:37 39.71312 -86.30960 790 ft 2 kts 73°
2026-05-06 01:37 39.71335 -86.30897 790 ft 9 kts 58°
2026-05-06 01:38 39.71416 -86.30790 792 ft 18 kts 42°
2026-05-06 01:38 39.71523 -86.30662 789 ft 23 kts 43°
2026-05-06 01:38 39.71633 -86.30525 788 ft 20 kts 45°
2026-05-06 01:38 39.71730 -86.30398 786 ft 26 kts 45°
2026-05-06 01:39 39.71845 -86.30250 787 ft 18 kts 44°
2026-05-06 01:39 39.71918 -86.30157 787 ft 14 kts 45°
2026-05-06 01:39 39.71951 -86.30092 788 ft 0 kts 123°
2026-05-06 01:39 39.71914 -86.30025 790 ft 22 kts 127°
2026-05-06 01:40 39.71852 -86.29916 792 ft 10 kts 119°
2026-05-06 01:40 39.71814 -86.29809 793 ft 12 kts 119°
2026-05-06 01:40 39.71800 -86.29784 793 ft 1 kts 140°
2026-05-06 01:40 39.71784 -86.29768 793 ft 0 kts 141°